Flag for Argentina Weather past 2 weeks in Salta, Salta, Argentina

Now
73 °F

Mostly cloudy.


Feels Like: 76 °F
Forecast: 63 / 74 °F
Wind: 3 mph from Southeast

Location: Salta Aerodrome

Current Time: Feb 28, 2015 at 3:08:53 PM

Latest Report: Feb 28, 2015 at 2:00 PM


Visibility: N/A

Pressure: 30.07 "Hg

Humidity: 69%

Dew point: 63 °F

Location of SaltaLocation

Historic Weather in Salta — Graph

°F

Salta temperature yesterday

Maximum temperature yesterday: 75 °F (at 3:00 PM)
Minimum temperature yesterday: 63 °F (at 11:00 PM)
Average temperature yesterday: 67 °F

Past Weeks' High & Low Weather Summary

 TemperatureHumidityPressure
High140 °F (Feb 14, 5:00 PM)100% (Feb 16, 6:00 AM)30.21 "Hg (Feb 16, 6:00 AM)
Low57 °F (Feb 20, 6:00 AM)4% (Feb 14, 5:00 PM)29.89 "Hg (Feb 18, 5:00 AM)
Average69 °F83%30.05 "Hg
* Reported Feb 13 2:00 PM — Feb 28 2:00 PM, Salta, Weather by CustomWeather, © 2015

Note: Actual official high and low records may vary slightly from our data, if they occured in-between our weather recording intervals... More about our weather records

Advertising

Salta weather history for previous 24 hours

 ConditionsComfort  
Time TempWeatherWind HumidityBarometerVisibility
2:00 PM
Sat, Feb 28
73 °FMostly cloudy.3 mph69%30.07 "HgN/A
1:00 PM72 °FPartly sunny.6 mph78%30.09 "HgN/A
12:00 PM72 °FMild.2 mph78%30.12 "HgN/A
11:00 AM70 °FMild.1 mph78%30.12 "HgN/A
10:00 AM66 °FBroken clouds.No wind88%30.12 "HgN/A
9:00 AM64 °FBroken clouds.No wind94%30.12 "HgN/A
8:00 AM63 °FMild.No wind100%30.12 "HgN/A
7:00 AM63 °FBroken clouds.No wind100%30.09 "Hg5 mi
6:00 AM63 °FMostly cloudy.2 mph94%30.09 "Hg5 mi
5:00 AM63 °FDrizzle. Mostly cloudy.2 mph100%30.09 "Hg3 mi
4:00 AM63 °FDrizzle. Mostly cloudy.2 mph100%30.09 "Hg3 mi
3:00 AM63 °FDrizzle. Mostly cloudy.5 mph100%30.09 "Hg3 mi
2:00 AM63 °FDrizzle. Mostly cloudy.No wind100%30.12 "Hg2 mi
1:00 AM63 °FDrizzle. Mostly cloudy.No wind100%30.12 "Hg2 mi
12:00 AM63 °FLight rain. Mostly cloudy.5 mph100%30.15 "Hg2 mi
11:00 PM
Fri, Feb 27
63 °FLight rain. Mostly cloudy.7 mph100%30.12 "Hg2 mi
10:00 PM64 °FLight rain. Mostly cloudy.6 mph94%30.09 "Hg2 mi
9:00 PM64 °FLight rain. Mostly cloudy.7 mph94%30.07 "Hg2 mi
8:00 PM66 °FLight rain. Mostly cloudy.14 mph83%30.04 "Hg2 mi
7:00 PM68 °FPassing clouds.12 mph83%29.98 "Hg5 mi
6:00 PM70 °FBroken clouds.10 mph78%29.98 "Hg5 mi
5:00 PM72 °FBroken clouds.2 mph83%29.98 "HgN/A
4:00 PM73 °FBroken clouds.5 mph78%29.98 "HgN/A
3:00 PM75 °FScattered clouds.3 mph69%30.01 "HgN/A
Weather by CustomWeather, © 2015

See weather overviewHow to use our weather pages